Location: Fours
(44.3167°N, 6.7000°E)
Time: 21:21:33
(UTC+00:00)

SL-16 R/B - Pass Details

Date: 16 October 2021
Orbit: 842 x 846 km, 71.0° (Epoch: 29 November)

Event Time Altitude Azimuth Distance (km) Brightness Sun altitude
Rises 18:03:05 0° 164° (SSE) 3,385 5.2 -14.3°
Reaches altitude 10° 18:06:02 10° 149° (SSE) 2,456 4.3 -14.8°
Enters shadow 18:09:21 21° 114° (ESE) 1,806 3.4 -15.4°
